FW8448 Weather Reports


Display with metric or nautical units.
time (UTC)temp
F
wind
direction
speed
MPH
gust
MPH
rain 1hr
in
rain 24hr
in
rain mn
in
humidity
%
barometer
mb
20260903151601 86 298 4.0 10.0 0.00 0.00 0.00 79 1017.1
20260903150100 85 257 2.0 7.0 0.00 0.00 0.00 80 1017.1
20260903144603 85 252 3.0 8.0 0.00 0.00 0.00 82 1017.2
20260903143106 84 273 2.0 7.0 0.00 0.00 0.00 83 1017.2
20260903141557 83 281 3.0 7.0 0.00 0.00 0.00 84 1017.2
20260903140105 82 279 1.0 7.0 0.00 0.00 0.00 86 1017.3
20260903134604 81 261 1.0 4.0 0.00 0.00 0.00 88 1017.4
20260903133110 80 0 0.0 0.0 0.00 0.00 0.00 89 1017.5
20260903131554 79 0 0.0 0.0 0.00 0.00 0.00 91 1017.6
20260903130129 78 0 0.0 0.0 0.00 0.00 0.00 93 1017.6
20260903124606 76 0 0.0 0.0 0.00 0.00 0.00 95 1017.7
20260903123100 74 0 0.0 0.0 0.00 0.00 0.00 96 1017.6
20260903121602 73 0 0.0 0.0 0.00 0.00 0.00 96 1017.6
20260903120106 72 0 0.0 0.0 0.00 0.00 0.00 96 1017.5
20260903114600 72 0 0.0 0.0 0.00 0.00 0.00 96 1017.5
20260903113102 72 0 0.0 0.0 0.00 0.00 0.00 96 1017.3
20260903111604 72 0 0.0 0.0 0.00 0.00 0.00 96 1017.2
20260903110101 72 0 0.0 1.0 0.00 0.00 0.00 96 1017.0
20260903104603 72 0 0.0 1.0 0.00 0.00 0.00 96 1017.0
20260903103106 72 0 0.0 0.0 0.00 0.00 0.00 96 1016.8
20260903101605 72 0 0.0 0.0 0.00 0.00 0.00 96 1016.8
20260903100058 72 0 0.0 0.0 0.00 0.00 0.00 96 1016.7
20260903094608 72 0 0.0 0.0 0.00 0.00 0.00 96 1016.6
20260903093102 72 0 0.0 0.0 0.00 0.00 0.00 95 1016.6
20260903091603 73 0 0.0 0.0 0.00 0.00 0.00 95 1016.6
20260903090106 73 0 0.0 0.0 0.00 0.00 0.00 95 1016.7
20260903084558 73 0 0.0 0.0 0.00 0.00 0.00 95 1016.6
20260903083110 73 0 0.0 0.0 0.00 0.00 0.00 95 1016.7
20260903081620 73 0 0.0 0.0 0.00 0.00 0.00 95 1016.6
20260903074610 74 0 0.0 0.0 0.00 0.00 0.00 94 1016.5
20260903073135 74 0 0.0 0.0 0.00 0.00 0.00 94 1016.6
20260903071620 74 0 0.0 1.0 0.00 0.00 0.00 94 1016.5
20260903070103 75 0 0.0 0.0 0.00 0.00 0.00 93 1016.5
20260903064600 75 0 0.0 1.0 0.00 0.00 0.00 93 1016.5
20260903063058 76 0 0.0 1.0 0.00 0.00 0.00 92 1016.5
20260903061601 76 208 0.0 3.0 0.00 0.00 0.00 92 1016.5
20260903060141 76 0 0.0 2.0 0.00 0.00 0.00 93 1016.6
20260903054559 75 0 0.0 0.0 0.00 0.00 0.00 93 1016.6
20260903053055 76 0 0.0 0.0 0.00 0.00 0.00 94 1016.6
20260903051606 76 0 0.0 0.0 0.00 0.00 0.00 93 1016.4
20260903044602 76 0 0.0 0.0 0.00 0.00 0.00 94 1016.3
20260903043052 76 0 0.0 0.0 0.00 0.00 0.00 94 1016.2
20260903041600 76 0 0.0 0.0 0.00 0.00 0.00 93 1016.2
20260903040106 76 0 0.0 0.0 0.00 0.00 0.00 94 1016.2
20260903034556 76 0 0.0 0.0 0.00 0.00 0.00 94 1016.3
20260903033101 76 0 0.0 0.0 0.00 0.00 0.00 94 1016.4
20260903031558 76 0 0.0 0.0 0.00 0.00 0.00 94 1016.4
20260903030057 76 0 0.0 0.0 0.00 0.00 0.00 94 1016.5
20260903024600 77 0 0.0 0.0 0.00 0.00 0.00 93 1016.6
20260903023107 77 0 0.0 0.0 0.00 0.00 0.00 93 1016.6
20260903021606 78 0 0.0 0.0 0.00 0.00 0.00 92 1016.6
20260903020104 79 0 0.0 0.0 0.00 0.00 0.00 91 1016.6
20260903014604 79 0 0.0 0.0 0.00 0.00 0.00 90 1016.6
20260903013107 80 0 0.0 0.0 0.00 0.00 0.00 89 1016.6
20260903011601 80 0 0.0 0.0 0.00 0.00 0.00 89 1016.3
20260903010059 81 0 0.0 0.0 0.00 0.00 0.00 88 1016.2
20260903004600 82 0 0.0 0.0 0.00 0.00 0.00 87 1016.1
20260903003105 83 0 0.0 0.0 0.00 0.00 0.00 85 1016.0
20260903001614 84 0 0.0 1.0 0.00 0.00 0.00 82 1015.9
20260903000100 86 0 0.0 2.0 0.00 0.00 0.00 79 1016.0
20260902234621 88 0 0.0 4.0 0.00 0.00 0.00 76 1015.9
20260902233100 89 0 1.0 5.0 0.00 0.00 0.00 74 1015.8
20260902231607 90 200 1.0 4.0 0.00 0.00 0.00 74 1015.8
20260902230114 91 223 1.0 5.0 0.00 0.00 0.00 72 1015.8
20260902224603 91 226 1.0 6.0 0.00 0.00 0.00 71 1015.9
20260902223054 92 0 2.0 5.0 0.00 0.00 0.00 69 1016.0
20260902221559 92 215 1.0 4.0 0.00 0.00 0.00 69 1016.1
20260902220104 93 215 1.0 7.0 0.00 0.00 0.00 71 1016.0
20260902214610 93 240 2.0 7.0 0.00 0.00 0.00 66 1016.0
20260902213100 93 0 1.0 4.0 0.00 0.00 0.00 71 1016.1
20260902211559 93 237 2.0 7.0 0.00 0.00 0.00 67 1016.1
20260902204558 94 281 3.0 8.0 0.00 0.00 0.00 68 1016.3
20260902203058 94 248 3.0 10.0 0.00 0.00 0.00 66 1016.4
20260902201600 94 245 2.0 8.0 0.00 0.00 0.00 67 1016.5
20260902200058 93 217 3.0 9.0 0.00 0.00 0.00 67 1016.7
20260902194557 93 216 3.0 16.0 0.00 0.00 0.00 68 1017.0
20260902193104 93 293 2.0 13.0 0.00 0.00 0.00 71 1017.1
20260902191557 93 246 1.0 9.0 0.00 0.00 0.00 69 1017.2
20260902190057 93 221 2.0 6.0 0.00 0.00 0.00 71 1017.2
20260902184601 92 235 4.0 11.0 0.00 0.00 0.00 67 1017.2
20260902183105 92 169 2.0 8.0 0.00 0.00 0.00 73 1017.3
20260902181602 91 220 3.0 14.0 0.00 0.00 0.00 72 1017.5
20260902180104 91 275 4.0 12.0 0.00 0.00 0.00 70 1017.6
20260902174604 91 285 7.0 13.0 0.00 0.00 0.00 68 1017.7
20260902173105 91 211 3.0 8.0 0.00 0.00 0.00 69 1017.8
20260902171607 90 246 2.0 8.0 0.00 0.00 0.00 73 1017.9
20260902164602 89 263 4.0 9.0 0.00 0.00 0.00 73 1018.3
20260902163101 89 175 4.0 12.0 0.00 0.00 0.00 75 1018.4
20260902161602 88 224 2.0 10.0 0.00 0.00 0.00 77 1018.5
20260902160059 87 0 0.0 0.0 0.00 0.00 0.00 77 1018.4
20260902154556 87 0 0.0 0.0 0.00 0.00 0.00 78 1018.6
20260902153115 86 0 0.0 0.0 0.00 0.00 0.00 80 1018.6